Location: West Cummington
(42.4920°N, 72.9680°W)
Time: 12:47:02
(UTC-04:00)

ATLAS 2AS CENTAUR R/B - Visible Passes

Search period start: 25 July 2017 00:00
Search period end: 04 August 2017 00:00
Orbit: 905 x 1307 km, 63.7° (Epoch: 13 June)

Date Brightness Start Highest point End Pass type
(mag) Time Alt. Az. Time Alt. Az. Time Alt. Az.
25 Jul 3.8 02:43:39 27° SSE 02:47:09 40° ESE 02:54:32 10° NE visible
25 Jul 3.5 04:31:06 13° WSW 04:38:00 55° NW 04:46:01 10° NNE visible
26 Jul 4.3 02:00:24 22° SE 02:02:45 26° ESE 02:09:02 10° NE visible
26 Jul 3.1 03:47:51 24° SW 03:52:59 77° NW 04:01:12 10° NNE visible
27 Jul 4.7 01:17:06 15° ESE 01:18:30 16° ESE 01:22:47 10° ENE visible
27 Jul 3.1 03:04:32 36° SSW 03:08:09 76° ESE 03:16:18 10° NE visible
27 Jul 4.1 04:52:54 10° W 04:59:58 34° NW 05:07:16 10° NNE visible
28 Jul 3.4 02:21:12 40° SSE 02:23:29 51° ESE 02:31:16 10° NE visible
28 Jul 3.7 04:08:38 16° WSW 04:14:41 46° NW 04:22:29 10° NNE visible
29 Jul 3.9 01:37:49 32° SE 01:38:59 34° ESE 01:45:59 10° NE visible
29 Jul 3.3 03:25:15 29° WSW 03:29:34 63° NW 03:37:42 10° NNE visible
30 Jul 4.4 00:54:24 21° ESE 00:54:38 21° ESE 01:00:16 10° ENE visible
30 Jul 3.0 02:41:50 45° SW 02:44:38 88° NW 02:52:51 10° NE visible
30 Jul 4.4 04:30:03 10° W 04:36:48 29° NNW 04:43:44 10° NNE visible
31 Jul 4.9 00:10:56 12° E 00:10:56 12° E 00:13:16 10° ENE visible
31 Jul 3.0 01:58:22 55° SSE 01:59:52 65° ESE 02:07:54 10° NE visible
31 Jul 4.0 03:45:48 17° W 03:51:26 38° NW 03:58:57 10° NNE visible
01 Aug 3.5 01:14:52 43° ESE 01:15:16 43° ESE 01:22:47 10° NE visible
01 Aug 3.5 03:02:18 29° WSW 03:06:13 52° NW 03:14:11 10° NNE visible
01 Aug 4.9 04:53:33 10° WNW 04:59:18 21° NNW 05:05:08 10° NNE visible
02 Aug 4.1 00:31:20 28° ESE 00:31:20 28° ESE 00:37:21 10° NE visible
02 Aug 3.1 02:18:45 48° WSW 02:21:11 72° NW 02:29:22 10° NNE visible
02 Aug 4.6 04:07:17 10° W 04:13:41 25° NNW 04:20:14 10° NNE visible
02 Aug 4.6 23:47:46 17° E 23:47:46 17° E 23:51:19 10° ENE visible
03 Aug 2.9 01:35:11 68° S 01:36:18 81° ESE 01:44:29 10° NE visible
03 Aug 4.3 03:22:35 15° W 03:28:13 32° NW 03:35:25 10° NNE visible
